Location: Arborea
(39.7744°N, 8.5819°E)
Time: 20:00:26
(UTC+00:00)

CZ-2C DEB - Pass Details

Date: 25 August 2022
Orbit: 681 x 927 km, 97.9° (Epoch: 03 October)

Event Time Altitude Azimuth Distance (km) Brightness Sun altitude
Rises 20:07:53 0° 27° (NNE) 3,356 ? -21.7°
Reaches altitude 10° 20:10:42 10° 42° (NE) 2,462 ? -22.1°
Enters shadow 20:12:44 18° 62° (ENE) 1,977 ? -22.4°
